TimeCDT,TemperatureF,Dew PointF,Humidity,Sea Level PressureIn,VisibilityMPH,Wind Direction,Wind SpeedMPH,Gust SpeedMPH,PrecipitationIn,Events,Conditions,WindDirDegrees,DateUTC
12:07 AM,42.8,42.8,100,30.00,6.0,NW,10.4,-,0.01,Rain,Light Rain,320,2012-10-10 05:07:00
12:56 AM,43.0,41.0,93,30.01,10.0,West,5.8,-,0.01,,Overcast,280,2012-10-10 05:56:00
1:56 AM,41.9,41.0,97,30.02,10.0,West,10.4,-,N/A,,Partly Cloudy,270,2012-10-10 06:56:00
2:56 AM,41.0,41.0,100,30.02,10.0,West,9.2,-,N/A,,Clear,280,2012-10-10 07:56:00
3:56 AM,38.8,38.8,100,30.04,10.0,WNW,10.4,-,N/A,,Clear,290,2012-10-10 08:56:00
4:56 AM,37.9,34.9,89,30.06,10.0,WNW,10.4,-,N/A,,Clear,300,2012-10-10 09:56:00
5:56 AM,36.9,32.9,86,30.09,10.0,West,9.2,-,N/A,,Clear,260,2012-10-10 10:56:00
6:56 AM,34.9,32.9,92,30.12,10.0,West,10.4,-,N/A,,Clear,270,2012-10-10 11:56:00
7:56 AM,36.0,32.9,89,30.15,10.0,WNW,12.7,-,N/A,,Clear,290,2012-10-10 12:56:00
8:56 AM,37.9,32.0,79,30.18,10.0,WNW,15.0,-,N/A,,Clear,290,2012-10-10 13:56:00
9:56 AM,41.9,31.1,66,30.21,10.0,NW,18.4,-,N/A,,Clear,310,2012-10-10 14:56:00
10:56 AM,45.0,28.0,52,30.23,10.0,NW,18.4,-,N/A,,Clear,320,2012-10-10 15:56:00
11:56 AM,46.9,29.1,50,30.24,10.0,NW,18.4,-,N/A,,Clear,310,2012-10-10 16:56:00
12:56 PM,48.9,29.1,46,30.23,10.0,WNW,21.9,-,N/A,,Scattered Clouds,300,2012-10-10 17:56:00
1:56 PM,50.9,27.1,40,30.21,10.0,West,18.4,-,N/A,,Partly Cloudy,280,2012-10-10 18:56:00
2:56 PM,52.9,27.1,37,30.21,10.0,West,19.6,-,N/A,,Scattered Clouds,270,2012-10-10 19:56:00
3:56 PM,50.9,28.0,41,30.20,10.0,WNW,16.1,-,N/A,,Clear,300,2012-10-10 20:56:00
4:56 PM,52.0,27.1,38,30.19,10.0,WNW,18.4,-,N/A,,Clear,300,2012-10-10 21:56:00
5:56 PM,50.9,27.1,40,30.21,10.0,West,6.9,-,N/A,,Clear,260,2012-10-10 22:56:00
6:56 PM,46.9,28.0,48,30.22,10.0,West,4.6,-,N/A,,Clear,260,2012-10-10 23:56:00
7:56 PM,43.9,30.0,58,30.24,10.0,SW,3.5,-,N/A,,Clear,230,2012-10-11 00:56:00
8:56 PM,41.0,29.1,63,30.25,10.0,SSW,3.5,-,N/A,,Clear,210,2012-10-11 01:56:00
9:56 PM,38.8,28.0,65,30.25,10.0,SSW,6.9,-,N/A,,Clear,200,2012-10-11 02:56:00
10:56 PM,37.9,29.1,71,30.24,10.0,SSW,4.6,-,N/A,,Clear,210,2012-10-11 03:56:00
11:56 PM,37.9,28.0,68,30.24,10.0,SSW,5.8,-,N/A,,Clear,200,2012-10-11 04:56:00